Dewpoint
-5 -10 -17 -20 -21 -18 -17 -16 -15 -14 -14 -16 -20 -24 -24 -19 -15 -18 -20 -18 -14 -13 -11 -12 -14 -10 -7 -6 -10 -10 -12 -12 -10 -10 -10 -11 -13 -13 -13 -14 -12 -11 -15 -10 -9 -13 -16
-3 -14 -17 -17 -15 -15 -14 -15 -15 -14 -13 -15 -17 -22 -23 -17 -14 -16 -20 -16 -13 -14 -11 -10 -10 -11 -8 -9 -9 -13 -13 -12 -10 -9 -9 -9 -11 -11 -14 -12 -14 -10 -12 -14 -16 -18 -17
-3 -12 -15 -10 -6 -9 -11 -13 -12 -13 -15 -17 -18 -21 -24 -17 -13 -16 -20 -15 -14 -14 -17 -10 -9 -7 -9 -9 -11 -14 -13 -12 -9 -9 -9 -9 -9 -11 -11 -11 -11 -13 -14 -17 -18 -14 -14
-3 -10 -11 -3 0 -1 -5 -11 -12 -13 -13 -16 -17 -19 -25 -17 -14 -15 -18 -14 -15 -15 -12 -13 -8 -4 -10 -12 -13 -15 -13 -13 -10 -9 -9 -8 -8 -8 -10 -10 -10 -12 -13 -12 -13 -14 -14
-1 -9 -6 -0 -1 -2 -5 -5 -10 -11 -12 -15 -17 -18 -25 -18 -14 -15 -17 -12 -16 -16 -18 -14 -5 -4 -10 -12 -13 -15 -13 -12 -11 -9 -8 -7 -7 -10 -9 -9 -11 -11 -10 -10 -11 -13 -12
0 -2 -3 1 1 -2 -2 -2 -5 -9 -11 -15 -15 -17 -24 -18 -14 -15 -17 -13 -15 -17 -19 -12 -12 -8 -12 -13 -13 -15 -14 -11 -10 -9 -7 -6 -7 -12 -10 -9 -8 -7 -8 -9 -9 -11 -10
-1 -0 -3 -1 1 -1 -1 -1 -3 -4 -10 -13 -15 -16 -23 -20 -14 -15 -15 -11 -8 -3 -8 -9 -10 -11 -13 -14 -12 -15 -14 -12 -12 -11 -9 -10 -11 -9 -8 -8 -8 -7 -7 -8 -10 -12 -9
-2 -1 -1 -3 -1 -0 -1 -1 -1 -3 -7 -13 -15 -16 -21 -21 -15 -15 -5 1 -1 0 -5 -10 -12 -11 -11 -11 -13 -14 -13 -13 -13 -11 -9 -12 -9 -9 -9 -9 -7 -7 -7 -8 -10 -9 -8
-1 -2 -2 -2 -2 -0 -0 -1 -1 -0 -4 -12 -15 -15 -20 -21 -15 -14 -1 0 -1 -0 -1 -11 -12 -13 -11 -11 -13 -13 -13 -15 -13 -12 -11 -9 -10 -9 -8 -7 -7 -8 -5 -5 -5 -6 -9
-1 -2 -2 -1 -2 -2 -1 -1 -2 -1 -3 -11 -14 -14 -21 -12 -9 -1 -0 0 -1 -9 2 -9 -13 -13 -12 -11 -11 -13 -13 -11 -14 -12 -11 -10 -10 -8 -7 -8 -6 -4 -5 -4 -4 -4 -6
-0 -1 -2 -2 -1 -4 -1 -1 -2 -2 -2 -8 -13 -13 -21 -6 3 -3 3 -0 -9 -8 8 -8 -14 -13 -13 -11 -13 -12 -13 -13 -12 -9 -5 -9 -8 -7 -7 -7 -6 -4 -5 -4 -4 -3 -6
1 1 -0 -1 -2 -2 -2 -1 -1 -2 -3 -6 -13 -12 -21 -11 -1 2 1 -6 -12 3 4 -10 -14 -14 -13 -14 -14 -13 -12 -13 -12 -11 -11 -11 -10 -9 -8 -8 -5 -7 -5 -5 -4 -4 2
0 1 1 0 -2 -2 -3 -3 -2 -2 -3 -4 -12 -11 -10 -1 2 -0 -0 0 4 7 -7 -10 -13 -13 -12 -12 -13 -12 -11 -9 -8 -7 -7 -9 -10 -10 -9 -9 -7 -8 -3 -1 -1 3 4
-1 0 0 1 -0 -2 -1 -1 -2 -1 -2 -3 -10 -10 -18 -6 1 -2 4 -1 6 3 -3 -13 -15 -12 -12 -13 -12 -12 -11 -11 -13 -12 -14 -8 -4 -11 -11 -9 -9 -7 -5 1 2 1 -1
-3 -1 0 0 1 0 -1 -0 -2 -2 -2 -4 -7 -6 -12 -12 -5 -2 3 6 6 -1 -10 -13 -14 -12 -12 -13 -10 -11 -9 -9 -10 -10 -5 -9 -5 -11 -11 -10 -12 -7 -3 -6 1 0 2
-5 -3 -1 -0 0 1 1 -1 -1 -1 -2 -3 -1 -1 -2 -4 -9 1 4 5 1 -7 -14 -14 -10 -12 -9 -10 -9 -9 -8 -10 -9 -11 -8 -8 -4 -11 -12 -9 -11 -9 -7 0 2 4 3
-4 -3 -3 -2 -1 0 1 0 -1 -0 -2 -3 0 -2 -1 -5 -8 -1 5 4 -2 -10 -12 -13 -12 -10 -11 -10 -11 -8 -8 -9 -9 -11 -9 -10 -4 -5 -10 -7 -9 -6 -5 -1 2 2 2
-7 -6 -3 -3 -2 -1 0 1 0 0 -2 -2 -2 1 2 -5 -4 -2 3 -1 -6 -12 -12 -12 -10 -10 -10 -10 -10 -8 -7 -8 -9 -10 -8 -8 -5 -4 -8 -11 -14 -9 -6 -5 3 5 3
-6 -6 -6 -5 -4 -3 -1 0 0 0 -1 -1 -2 -2 2 -1 1 3 -2 -3 -4 -9 -11 -10 -9 -10 -11 -9 -4 -8 -8 -6 -8 -9 -7 -8 -1 -1 -4 -6 -9 -9 -7 -7 -4 1 4
-6 -7 -6 -6 -6 -4 -3 -1 -1 -0 -1 -2 -2 2 1 -2 -6 -5 -2 -1 -0 -8 -9 -11 -10 -11 -9 -8 -6 -3 -5 -6 -8 -8 -9 -8 -4 -2 -1 -5 -7 -8 -9 -8 -6 0 1
-6 -6 -6 -6 -6 -6 -6 -3 -1 -0 -0 -2 -0 1 -1 2 -0 -3 -4 -5 -3 -6 -9 -10 -9 -9 -8 1 -4 -5 -6 -5 -7 -6 -11 -4 -2 -6 -7 -10 -11 -12 -11 -10 -7 -5 -3
-6 -6 -6 -7 -7 -6 -6 -4 -3 -1 -0 -1 -1 1 -4 -4 -3 -3 -2 -1 -6 -7 -8 -8 -7 -8 -8 -4 -5 -2 -6 -4 -4 -5 -7 -6 -1 -5 -1 -8 -11 -11 -11 -11 -9 -9 -10
-5 -6 -6 -6 -7 -7 -6 -7 -5 -2 -1 -0 -1 -2 -3 -1 -4 -3 -1 -3 -4 -8 -8 -9 -8 -6 -7 -7 -8 -9 -8 -6 -7 -5 -5 -2 0 -3 1 -9 -9 -3 -7 -9 -9 -9 -8
-5 -5 -6 -6 -6 -6 -6 -7 -7 -4 -3 -2 -1 -0 -3 -0 -1 -2 -5 -5 -5 -7 -4 -8 -9 -6 -8 -7 -6 -5 -6 -7 -7 -6 -6 -3 -2 0 3 -3 0 -4 -9 -9 -9 -9 -10
-5 -5 -5 -6 -6 -5 -6 -6 -6 -7 -4 -3 -2 -0 -1 0 -4 -3 -4 -5 -6 -8 -8 -7 -8 -9 -7 -5 -1 2 1 -1 -0 -4 -6 -6 -2 2 3 -1 -4 -7 -8 -9 -8 -8 -10
-5 -6 -6 -5 -7 -7 -6 -6 -6 -7 -5 -4 -3 -2 -1 0 -1 -6 -4 -5 -2 -2 -4 -7 -7 -5 -6 -2 2 1 1 -2 -1 -3 -6 -6 -5 1 2 2 2 -7 -11 -11 -11 -4 -10
-5 -6 -5 -6 -7 -9 -7 -7 -6 -6 -5 -5 -4 -3 -2 0 -2 -5 -4 -2 -5 -4 -2 -6 -3 -3 -5 3 4 2 -1 -6 -3 -3 -2 -1 1 3 2 1 -3 -9 -11 -11 -4 -3 -9
-5 -5 -7 -6 -6 -7 -9 -7 -8 -6 -7 -5 -4 -5 -3 -1 -1 -3 -5 -5 -5 -5 0 -3 -2 -2 -1 2 3 2 2 -2 -4 -6 -4 -2 0 1 1 2 1 -8 -10 -6 -7 -7 -8
-6 -3 -5 -6 -5 -6 -10 -7 -8 -7 -6 -6 -4 -6 -4 -4 -0 -3 -5 -4 -5 -5 -4 -3 -3 -3 -2 2 1 2 2 1 -3 -1 -6 -3 -2 1 -1 -1 -6 -9 -9 -9 -5 -7 -8
Wind_Speed
10 8 5 3 2 2 3 3 4 4 4 4 5 5 5 5 5 5 3 2 2 4 7 9 14 4 4 2 5 10 16 13 11 8 9 6 5 6 5 0 5 6 9 8 8 12 13
11 6 4 3 2 2 3 4 4 5 5 5 4 5 4 4 5 5 2 1 2 6 12 12 8 4 5 4 5 9 9 11 9 9 8 9 5 7 6 7 4 7 8 8 8 9 7
10 6 4 3 3 4 5 5 6 7 7 7 5 5 4 3 4 4 1 3 3 6 8 9 10 5 7 3 7 10 8 9 8 8 7 6 5 4 1 4 1 3 6 9 5 3 2
9 7 6 4 5 7 8 6 7 8 9 7 5 5 4 3 3 2 4 5 6 10 12 5 2 2 2 3 4 8 7 5 8 7 4 3 3 5 1 2 6 6 4 4 8 6 7
8 6 7 5 6 7 8 7 7 8 9 9 6 6 4 2 1 1 5 5 8 12 4 3 5 6 2 3 6 8 6 5 5 5 5 3 4 3 6 6 7 8 5 6 8 6 10
10 9 9 7 7 8 8 10 9 8 8 7 6 7 6 3 1 3 6 5 6 10 4 5 8 6 2 2 4 8 5 4 2 2 3 4 7 5 10 9 4 7 6 7 9 8 10
11 12 12 9 10 9 10 11 11 9 8 7 6 6 5 4 2 5 9 3 1 4 8 8 3 3 3 2 5 9 6 3 5 6 3 3 9 7 8 7 5 4 7 9 10 10 12
15 15 14 15 11 10 11 10 11 10 9 7 6 5 4 3 3 7 7 2 4 4 5 6 4 1 1 1 4 8 4 6 2 5 3 9 9 5 4 3 7 6 6 9 8 12 11
12 15 17 15 17 13 13 11 11 13 11 8 6 4 3 2 3 6 2 4 3 3 6 8 7 5 2 4 1 5 6 2 5 4 8 13 8 3 4 8 10 6 5 8 9 12 13
10 10 13 16 17 16 15 14 13 13 11 8 5 4 3 5 4 3 3 3 2 0 4 10 7 6 6 4 4 2 4 3 1 4 8 7 4 3 2 7 8 7 7 9 9 9 7
15 11 9 13 15 16 16 16 13 15 12 9 5 5 7 10 6 2 3 3 5 1 3 11 11 7 6 6 2 4 1 4 5 5 4 5 5 6 5 6 6 7 11 13 11 12 10
18 17 15 13 15 16 16 16 15 15 15 9 6 6 7 5 6 3 2 7 8 1 6 7 8 9 11 7 2 3 3 1 2 3 8 7 4 6 5 8 2 11 15 17 14 9 2
18 11 21 17 16 17 15 18 16 15 14 10 6 9 14 8 1 7 7 8 3 4 2 8 8 13 12 7 5 5 8 7 4 8 9 8 6 5 7 8 4 11 13 5 0 2 2
15 15 17 20 20 20 19 17 14 14 13 12 8 10 15 14 3 6 6 6 4 6 10 4 10 12 11 10 6 7 6 7 3 8 3 6 6 2 4 4 6 6 9 5 4 6 5
24 20 14 23 21 21 20 19 15 14 13 14 7 5 13 14 13 11 12 4 6 7 11 8 13 12 9 11 2 9 7 3 3 6 2 3 5 5 3 4 8 7 5 6 4 7 7
21 26 22 12 19 23 21 21 18 15 12 10 6 6 11 12 14 8 8 8 7 10 3 11 12 13 13 13 7 10 8 3 5 2 3 2 4 4 3 4 5 4 6 1 2 4 4
17 18 25 27 13 16 23 21 21 19 11 7 8 7 9 15 15 11 6 7 9 9 8 9 17 7 10 11 13 11 9 8 1 5 1 1 2 6 4 2 3 2 3 3 2 4 3
21 20 16 24 29 15 17 25 22 22 14 10 11 6 10 16 12 10 9 11 9 12 12 7 4 9 10 10 11 10 7 3 8 5 4 4 2 2 5 4 3 1 0 2 1 3 2
20 21 21 20 20 29 13 21 23 25 22 10 12 17 9 17 7 6 11 15 18 12 13 8 8 10 8 8 6 7 8 11 8 6 4 6 3 4 4 5 7 5 4 3 5 3 4
22 21 22 21 19 22 29 17 11 27 26 19 15 3 6 18 19 16 14 14 17 14 17 15 8 8 8 9 7 7 10 7 7 4 6 1 4 5 3 4 0 6 8 7 5 3 4
23 24 22 23 22 20 21 28 16 21 30 23 14 5 9 5 13 17 20 10 19 11 20 21 11 13 12 5 9 9 13 12 9 7 7 3 4 6 5 4 5 8 8 8 11 11 7
22 23 24 24 24 24 22 21 27 15 33 35 9 5 17 17 26 23 19 21 17 19 12 15 13 14 14 9 10 9 12 12 8 11 9 6 3 1 4 9 7 9 12 12 12 10 8
25 23 25 26 26 24 25 24 25 29 18 30 28 21 16 9 18 17 18 20 21 15 19 19 20 12 15 13 15 6 14 17 5 12 11 7 3 4 2 2 5 8 18 16 13 11 9
29 28 25 27 27 26 24 26 26 29 27 12 22 17 21 8 10 14 20 26 22 22 16 20 15 17 19 16 15 10 9 4 5 9 16 8 7 3 1 3 4 5 3 15 15 13 10
32 32 30 27 28 29 27 26 27 27 26 29 17 27 17 11 20 17 22 18 29 26 19 19 19 23 23 18 4 4 3 4 4 7 11 10 8 3 3 6 8 14 11 12 13 12 10
37 36 34 33 29 31 29 28 27 27 26 27 28 24 16 13 18 28 19 25 12 13 13 17 19 13 25 6 4 6 6 6 7 5 15 12 9 5 4 4 5 1 7 13 6 9 12
37 40 39 37 35 32 33 32 28 27 25 27 27 22 17 16 24 28 22 13 23 19 9 14 14 17 22 5 3 5 6 10 9 10 10 11 7 10 7 6 6 10 12 14 6 2 14
36 37 39 39 40 36 35 33 31 27 26 25 30 24 24 9 17 36 28 26 22 24 12 18 12 15 11 8 6 5 4 8 8 10 11 12 10 7 7 7 9 14 17 10 6 7 13
34 37 38 40 39 41 36 37 33 29 27 27 29 28 20 21 8 28 32 27 20 23 26 28 12 24 13 7 6 4 5 5 7 6 17 8 9 6 11 6 3 14 13 15 8 13 12
Wind_Direction
317 307 288 285 298 334 338 342 344 343 348 346 348 350 353 357 356 352 344 344 30 65 64 92 144 129 325 222 355 348 359 352 7 2 11 353 8 309 234 200 33 245 284 18 351 338 326
301 291 274 265 275 295 316 313 312 312 315 311 322 334 343 356 357 354 344 118 96 109 105 111 107 41 297 269 336 346 347 359 8 13 20 31 19 336 52 28 324 1 326 311 293 291 338
288 269 252 262 290 286 306 299 301 300 299 295 301 314 330 346 355 1 128 148 141 143 134 126 111 77 26 27 352 351 353 347 12 13 22 23 360 332 185 157 71 272 276 248 220 53 302
277 254 243 269 292 310 304 295 297 299 305 304 292 298 308 327 355 20 153 157 148 145 132 150 133 325 34 349 38 355 6 358 12 17 11 13 81 64 21 145 197 213 211 25 132 346 332
278 259 240 272 283 310 301 302 301 301 305 313 300 293 293 298 338 103 155 159 173 169 175 129 338 288 146 332 356 1 356 3 355 10 22 2 264 296 164 242 187 82 8 0 323 354 352
255 269 249 283 267 305 304 307 302 301 301 315 309 298 292 281 263 150 143 133 162 209 229 299 275 259 184 170 2 0 353 20 12 348 245 259 222 68 35 3 102 25 356 325 315 356 348
245 255 262 254 276 294 302 298 308 304 304 308 306 295 286 277 228 163 144 115 225 219 211 301 57 24 117 174 351 3 357 307 257 240 113 285 79 53 36 30 18 335 290 310 4 4 349
262 254 260 262 260 270 281 301 309 305 307 302 295 282 272 269 232 176 155 250 39 304 267 227 229 232 81 180 247 16 344 241 275 161 209 126 78 54 337 17 359 296 333 12 325 354 321
266 267 268 270 254 262 269 271 290 301 308 299 289 264 234 235 167 150 218 296 269 309 254 196 214 212 208 223 28 13 357 249 337 87 72 63 72 3 350 40 350 347 30 343 324 324 291
259 268 269 273 284 248 267 283 275 285 300 294 281 238 184 150 152 203 209 272 273 164 267 169 207 206 181 198 220 7 2 304 119 78 61 65 82 350 2 27 351 292 16 321 308 317 330
246 258 242 270 274 250 258 278 281 279 286 288 270 221 181 187 146 215 201 226 185 33 262 156 150 139 173 214 80 138 30 257 67 109 247 103 57 12 23 350 349 313 312 285 277 268 295
247 244 247 259 245 257 257 266 281 291 279 277 263 202 179 171 215 248 223 162 144 198 240 171 159 188 178 185 175 126 151 78 57 134 59 98 154 62 347 304 30 288 310 279 244 255 66
265 260 253 246 239 241 255 252 267 292 277 272 252 200 178 158 210 235 159 154 171 193 188 171 185 176 186 168 157 209 164 176 226 184 172 152 88 127 14 356 177 1 347 3 183 180 80
267 257 256 251 240 237 246 250 256 276 297 273 249 215 199 189 231 223 180 214 196 201 216 127 171 180 203 158 162 178 199 148 81 291 172 192 169 38 56 11 340 22 35 13 306 355 337
274 265 250 251 250 238 242 240 241 255 280 275 248 228 224 207 206 185 213 193 212 221 198 173 162 188 196 184 260 193 216 117 53 358 329 202 124 127 90 337 356 10 30 331 287 280 272
274 270 262 247 246 246 234 236 237 244 259 269 232 248 239 219 200 200 229 217 238 244 259 192 188 198 198 192 203 201 171 151 139 32 323 107 155 158 97 236 104 60 31 12 335 323 314
277 271 265 258 238 231 238 228 231 233 229 263 224 227 178 209 192 204 220 213 239 250 249 219 218 187 249 175 204 201 169 129 194 123 308 111 299 136 215 63 30 4 60 68 303 304 312
273 272 267 265 249 239 220 225 224 225 204 229 226 219 195 198 191 212 226 213 244 241 222 247 313 264 228 174 199 186 166 135 157 151 158 60 306 215 74 95 112 99 193 75 235 48 347
276 271 269 270 270 255 226 217 217 217 202 198 226 226 199 186 207 225 227 223 252 252 210 219 209 243 229 181 196 186 148 102 142 181 155 159 206 176 171 169 194 230 189 196 164 171 243
277 276 268 262 263 261 257 226 206 208 207 197 231 215 171 202 227 207 217 225 224 235 246 219 218 191 202 199 161 189 138 153 164 139 90 31 226 262 332 36 324 194 203 194 219 271 273
270 271 273 262 259 256 253 257 213 194 204 204 221 227 190 191 219 233 212 211 215 220 221 205 221 201 195 193 171 209 157 147 182 139 176 234 219 219 266 292 261 253 243 231 220 217 265
267 267 267 267 259 256 254 258 247 193 199 213 210 204 207 236 209 217 226 216 221 212 205 215 212 207 206 187 184 205 178 173 177 168 198 188 205 102 319 261 245 253 243 238 241 255 245
266 262 258 262 263 256 252 247 253 244 201 215 222 226 250 250 225 213 221 220 223 223 203 217 206 208 215 195 196 226 205 180 197 172 191 156 189 152 233 210 286 280 237 231 226 222 224
261 261 257 254 257 256 250 251 247 251 242 239 221 220 220 237 249 217 220 223 224 225 225 202 221 214 205 130 99 63 81 155 160 186 191 170 186 141 233 313 236 239 289 203 219 210 216
261 256 256 253 248 251 249 246 245 245 249 244 239 209 230 225 237 257 224 218 221 227 236 196 216 208 153 128 102 63 24 14 326 260 196 194 181 154 213 212 284 287 210 197 205 221 214
263 256 254 251 250 244 246 243 241 242 243 249 250 232 243 229 226 233 254 219 207 220 217 204 193 164 150 124 129 181 184 180 192 210 221 199 217 189 174 237 225 143 118 189 184 248 226
261 250 249 249 250 247 240 242 239 239 236 246 252 256 241 238 225 221 236 258 214 204 217 179 145 167 167 149 146 195 213 181 169 182 185 192 193 213 197 240 271 261 135 150 168 261 186
260 249 245 245 245 247 240 240 238 237 232 240 244 253 241 274 217 222 231 236 238 212 199 168 156 192 189 176 180 189 235 194 184 186 178 176 176 193 213 213 247 223 152 182 191 124 125
257 247 248 239 241 239 241 236 237 235 233 230 236 239 255 244 265 215 225 231 237 234 209 176 178 181 182 170 195 192 199 185 208 191 171 195 196 177 195 209 257 184 169 189 162 156 163
Height
1531 1530 1529 1528 1527 1526 1526 1525 1525 1524 1523 1522 1521 1520 1519 1518 1518 1516 1515 1515 1514 1514 1514 1512 1514 1514 1514 1513 1514 1513 1509 1508 1507 1506 1504 1501 1497 1493 1488 1486 1492 1495 1493 1494 1497 1500 1503
1531 1529 1528 1528 1527 1526 1526 1525 1525 1524 1523 1522 1521 1520 1519 1518 1517 1516 1515 1516 1516 1516 1516 1516 1516 1516 1516 1515 1514 1513 1511 1510 1508 1506 1504 1501 1501 1498 1496 1497 1497 1500 1500 1500 1502 1503 1505
1529 1528 1527 1527 1526 1526 1525 1525 1524 1524 1522 1522 1521 1520 1519 1518 1517 1516 1516 1516 1517 1517 1518 1519 1519 1517 1518 1517 1514 1512 1511 1510 1508 1507 1505 1504 1503 1501 1501 1499 1504 1504 1503 1496 1498 1503 1505
1528 1527 1527 1527 1526 1525 1525 1524 1524 1523 1522 1521 1521 1520 1519 1518 1517 1516 1516 1517 1518 1519 1519 1520 1519 1518 1517 1516 1514 1514 1511 1511 1509 1508 1506 1504 1504 1504 1502 1502 1500 1496 1496 1494 1498 1499 1502
1528 1527 1526 1526 1525 1524 1524 1524 1523 1522 1521 1521 1521 1520 1519 1518 1517 1517 1517 1518 1519 1520 1520 1521 1520 1519 1516 1516 1516 1514 1512 1511 1510 1509 1506 1506 1505 1501 1501 1498 1496 1495 1503 1505 1503 1499 1504
1526 1526 1526 1526 1525 1524 1523 1523 1522 1521 1521 1520 1520 1520 1520 1519 1518 1517 1518 1520 1520 1521 1521 1520 1520 1521 1517 1516 1516 1515 1513 1512 1511 1510 1509 1506 1503 1499 1503 1499 1505 1510 1511 1508 1507 1502 1506
1524 1525 1525 1524 1524 1523 1523 1522 1522 1521 1520 1519 1519 1519 1520 1520 1519 1519 1520 1521 1524 1524 1520 1518 1517 1517 1517 1517 1515 1514 1513 1512 1511 1508 1504 1501 1502 1515 1515 1513 1510 1510 1509 1507 1502 1505 1511
1523 1523 1523 1523 1523 1523 1522 1521 1521 1520 1519 1518 1517 1517 1518 1520 1520 1520 1521 1522 1522 1523 1520 1518 1518 1517 1517 1517 1515 1515 1514 1514 1506 1504 1506 1504 1515 1516 1512 1509 1509 1506 1507 1509 1507 1509 1510
1519 1520 1521 1521 1521 1522 1522 1521 1520 1519 1518 1517 1517 1516 1517 1519 1520 1522 1522 1523 1521 1521 1520 1516 1515 1515 1517 1518 1516 1516 1515 1513 1508 1503 1505 1504 1515 1513 1510 1510 1513 1507 1514 1517 1518 1509 1501
1517 1516 1518 1518 1519 1519 1520 1520 1519 1518 1517 1516 1516 1516 1517 1518 1522 1522 1523 1521 1522 1522 1516 1510 1513 1513 1516 1515 1515 1516 1515 1515 1511 1509 1507 1513 1516 1514 1511 1514 1516 1513 1514 1515 1513 1511 1510
1513 1514 1514 1515 1516 1517 1518 1518 1517 1517 1516 1515 1514 1515 1516 1518 1518 1522 1521 1521 1522 1524 1527 1506 1508 1511 1513 1513 1513 1514 1515 1512 1508 1512 1512 1518 1516 1516 1516 1519 1517 1516 1514 1511 1507 1505 1501
1508 1509 1510 1511 1513 1515 1516 1516 1516 1515 1515 1514 1514 1514 1516 1519 1520 1520 1519 1520 1524 1527 1525 1504 1504 1508 1510 1511 1512 1512 1514 1515 1514 1511 1510 1515 1519 1521 1520 1515 1517 1513 1505 1497 1497 1497 1517
1503 1504 1505 1507 1508 1511 1512 1514 1514 1514 1513 1512 1512 1513 1515 1516 1521 1519 1519 1523 1524 1531 1500 1499 1502 1504 1503 1507 1510 1508 1507 1511 1508 1512 1511 1513 1516 1519 1521 1515 1512 1512 1509 1505 1506 1512 1523
1499 1500 1501 1502 1504 1506 1508 1510 1512 1512 1512 1511 1511 1512 1513 1514 1518 1518 1520 1521 1528 1506 1498 1491 1495 1502 1501 1503 1505 1509 1508 1508 1510 1506 1501 1506 1523 1518 1522 1523 1522 1517 1519 1525 1528 1515 1511
1494 1496 1497 1498 1499 1502 1504 1507 1509 1510 1511 1510 1510 1511 1511 1513 1514 1517 1520 1520 1512 1499 1487 1491 1495 1500 1500 1502 1505 1506 1505 1506 1514 1514 1510 1510 1518 1520 1523 1523 1520 1520 1523 1523 1527 1513 1514
1489 1490 1491 1493 1494 1496 1499 1502 1505 1508 1509 1509 1509 1512 1511 1511 1513 1516 1516 1511 1502 1492 1485 1489 1494 1492 1496 1501 1507 1502 1507 1512 1517 1519 1517 1517 1518 1517 1521 1521 1520 1522 1524 1529 1526 1531 1526
1484 1485 1486 1488 1489 1491 1494 1497 1501 1504 1507 1509 1510 1509 1506 1508 1512 1515 1510 1506 1500 1494 1493 1489 1488 1489 1485 1492 1500 1501 1503 1514 1517 1518 1518 1516 1519 1520 1519 1520 1524 1523 1525 1533 1538 1532 1532
1479 1480 1482 1482 1484 1486 1489 1492 1496 1500 1504 1507 1508 1506 1503 1505 1511 1505 1504 1499 1497 1491 1494 1490 1490 1487 1488 1486 1497 1497 1500 1506 1516 1517 1517 1521 1517 1519 1516 1520 1524 1526 1528 1529 1541 1539 1534
1474 1476 1477 1478 1479 1481 1484 1487 1491 1495 1499 1505 1505 1501 1501 1503 1502 1503 1499 1497 1496 1494 1491 1492 1492 1488 1488 1489 1500 1494 1500 1515 1519 1519 1519 1522 1524 1522 1525 1525 1525 1524 1525 1527 1531 1536 1538
1470 1470 1471 1473 1475 1476 1478 1480 1482 1488 1495 1501 1502 1497 1496 1498 1496 1495 1495 1495 1494 1492 1489 1490 1489 1489 1490 1491 1497 1498 1503 1517 1521 1520 1524 1524 1518 1517 1517 1517 1517 1520 1521 1521 1526 1532 1523
1465 1465 1466 1468 1469 1472 1473 1474 1478 1481 1489 1497 1494 1488 1487 1491 1493 1491 1488 1486 1487 1487 1486 1487 1488 1487 1489 1500 1498 1500 1500 1515 1521 1524 1525 1524 1523 1515 1516 1516 1517 1517 1515 1516 1517 1523 1524
1459 1459 1461 1461 1463 1465 1468 1469 1472 1474 1481 1487 1485 1485 1483 1485 1485 1488 1481 1479 1478 1481 1482 1482 1485 1486 1488 1492 1495 1500 1497 1508 1514 1522 1522 1523 1522 1520 1537 1520 1518 1517 1514 1512 1511 1510 1512
1452 1453 1454 1456 1457 1459 1462 1465 1466 1468 1474 1474 1478 1479 1480 1479 1475 1478 1475 1476 1476 1475 1477 1480 1482 1485 1486 1488 1493 1495 1497 1503 1505 1512 1517 1521 1525 1526 1524 1515 1516 1521 1508 1506 1506 1506 1508
1444 1446 1447 1449 1451 1453 1455 1458 1461 1462 1465 1469 1471 1477 1476 1472 1470 1466 1470 1474 1472 1473 1474 1476 1479 1482 1486 1487 1493 1498 1500 1503 1508 1509 1513 1518 1522 1525 1526 1524 1529 1498 1494 1496 1500 1501 1504
1435 1437 1439 1441 1443 1446 1448 1451 1455 1457 1460 1463 1465 1470 1468 1465 1466 1464 1461 1463 1470 1470 1470 1472 1477 1480 1482 1489 1504 1515 1518 1518 1517 1511 1510 1512 1518 1530 1528 1522 1504 1496 1492 1495 1497 1500 1500
1425 1427 1429 1432 1434 1437 1441 1444 1448 1451 1455 1456 1459 1461 1464 1463 1453 1461 1458 1458 1461 1465 1468 1468 1475 1478 1480 1489 1501 1505 1509 1504 1516 1512 1508 1512 1513 1521 1530 1521 1509 1485 1487 1493 1497 1505 1497
1412 1415 1418 1422 1425 1428 1432 1437 1441 1445 1449 1450 1453 1454 1458 1453 1453 1456 1453 1455 1457 1461 1464 1466 1471 1477 1479 1484 1497 1497 1489 1487 1498 1502 1508 1508 1515 1515 1519 1518 1500 1485 1488 1495 1508 1498 1489
1399 1402 1406 1411 1415 1419 1423 1428 1433 1438 1442 1444 1446 1449 1452 1449 1446 1448 1450 1453 1453 1454 1459 1462 1473 1474 1478 1483 1488 1488 1483 1477 1480 1482 1491 1497 1511 1514 1515 1515 1509 1484 1488 1495 1492 1494 1495
1387 1389 1394 1399 1404 1409 1414 1419 1425 1430 1435 1440 1440 1444 1447 1449 1442 1443 1445 1449 1450 1453 1457 1457 1460 1465 1468 1474 1476 1475 1476 1471 1473 1476 1481 1489 1487 1491 1494 1488 1480 1478 1484 1490 1493 1495 1499